FW7253 Weather Reports


time (UTC)temp
C
wind
direction
speed
KPH
gust
KPH
rain 1hr
cm
rain 24hr
cm
rain mn
cm
humidity
%
barometer
mb
20260509132533 15 204 16.1 38.6 0.00 0.00 0.00 32 1021.3
20260509132036 15 146 22.5 40.2 0.00 0.00 0.00 30 1021.6
20260509131549 15 207 17.7 40.2 0.00 0.00 0.00 30 1021.6
20260509131035 16 217 22.5 35.4 0.00 0.00 0.00 28 1021.5
20260509130534 16 219 25.7 37.0 0.00 0.00 0.00 28 1021.6
20260509130041 16 224 25.7 38.6 0.00 0.00 0.00 27 1021.6
20260509125532 16 216 27.4 38.6 0.00 0.00 0.00 27 1021.7
20260509125036 15 215 24.1 41.8 0.00 0.00 0.00 27 1021.8
20260509124539 15 221 27.4 41.8 0.00 0.00 0.00 27 1021.8
20260509124033 15 250 25.7 41.8 0.00 0.00 0.00 27 1021.9
20260509123533 15 198 22.5 33.8 0.00 0.00 0.00 26 1021.9
20260509123038 15 234 22.5 33.8 0.00 0.00 0.00 28 1021.9
20260509122532 15 229 24.1 33.8 0.00 0.00 0.00 27 1021.9
20260509122034 15 226 22.5 32.2 0.00 0.00 0.00 28 1022.0
20260509121551 15 207 17.7 32.2 0.00 0.00 0.00 30 1022.0
20260509121032 15 224 14.5 29.0 0.00 0.00 0.00 31 1022.1
20260509120532 15 235 19.3 33.8 0.00 0.00 0.00 32 1022.0
20260509120043 15 217 16.1 33.8 0.00 0.00 0.00 34 1022.0
20260509115532 15 216 19.3 33.8 0.00 0.00 0.00 32 1022.0
20260509115034 15 161 16.1 33.8 0.00 0.00 0.00 33 1022.1
20260509114547 15 113 19.3 33.8 0.00 0.00 0.00 34 1022.0
20260509114033 15 153 14.5 29.0 0.00 0.00 0.00 34 1022.2
20260509113534 15 199 17.7 29.0 0.00 0.00 0.00 34 1022.2
20260509113042 15 236 12.9 32.2 0.00 0.00 0.00 38 1022.2
20260509112532 15 205 20.9 32.2 0.00 0.00 0.00 36 1022.3
20260509112032 15 225 24.1 32.2 0.00 0.00 0.00 36 1022.3
20260509111541 15 219 17.7 32.2 0.00 0.00 0.00 35 1022.4
20260509111032 15 233 22.5 32.2 0.00 0.00 0.00 36 1022.3
20260509110536 14 220 17.7 38.6 0.00 0.00 0.00 35 1022.4
20260509110047 14 229 22.5 38.6 0.00 0.00 0.00 35 1022.5
20260509105532 14 207 14.5 35.4 0.00 0.00 0.00 37 1022.3
20260509105032 14 203 19.3 29.0 0.00 0.00 0.00 40 1022.5
20260509104549 14 207 16.1 27.4 0.00 0.00 0.00 43 1022.6
20260509104032 14 227 19.3 27.4 0.00 0.00 0.00 49 1022.5
20260509103533 14 217 16.1 24.1 0.00 0.00 0.00 45 1022.4
20260509103058 15 235 11.3 27.4 0.00 0.00 0.00 49 1022.5
20260509102534 15 93 14.5 27.4 0.00 0.00 0.00 48 1022.4
20260509102033 15 179 11.3 33.8 0.00 0.00 0.00 49 1022.3
20260509101548 16 193 17.7 33.8 0.00 0.00 0.00 45 1022.5
20260509101032 16 200 19.3 33.8 0.00 0.00 0.00 47 1022.4
20260509100532 15 226 14.5 33.8 0.00 0.00 0.00 49 1022.4
20260509100046 15 171 14.5 29.0 0.00 0.00 0.00 49 1022.5
20260509095533 15 214 17.7 29.0 0.00 0.00 0.00 50 1022.6
20260509095033 15 210 14.5 22.5 0.00 0.00 0.00 52 1022.7
20260509094550 15 236 12.9 22.5 0.00 0.00 0.00 51 1022.6
20260509094032 15 203 6.4 22.5 0.00 0.00 0.00 57 1022.6
20260509093532 15 217 12.9 22.5 0.00 0.00 0.00 54 1022.7
20260509093045 15 214 11.3 24.1 0.00 0.00 0.00 51 1022.8
20260509092532 15 236 16.1 24.1 0.00 0.00 0.00 53 1022.9
20260509092034 14 237 14.5 27.4 0.00 0.00 0.00 52 1023.0
20260509091542 15 210 14.5 27.4 0.00 0.00 0.00 56 1022.9
20260509091038 14 95 8.0 19.3 0.00 0.00 0.00 57 1022.9
20260509090534 14 217 12.9 19.3 0.00 0.00 0.00 58 1023.0
20260509090041 14 162 11.3 17.7 0.00 0.00 0.00 57 1023.1
20260509085534 14 246 8.0 17.7 0.00 0.00 0.00 62 1023.1
20260509085034 14 185 3.2 11.3 0.00 0.00 0.00 62 1023.1
20260509084550 14 100 3.2 12.9 0.00 0.00 0.00 62 1023.1
20260509084034 13 212 4.8 17.7 0.00 0.00 0.00 66 1023.1
20260509083534 13 180 8.0 17.7 0.00 0.00 0.00 63 1023.3
20260509083049 13 235 6.4 17.7 0.00 0.00 0.00 68 1023.3
20260509082534 13 102 9.7 19.3 0.00 0.00 0.00 69 1023.4
20260509082034 13 221 11.3 19.3 0.00 0.00 0.00 68 1023.4
20260509081550 13 233 11.3 17.7 0.00 0.00 0.00 69 1023.3
20260509081035 12 167 9.7 17.7 0.00 0.00 0.00 69 1023.3
20260509080536 12 223 8.0 17.7 0.00 0.00 0.00 70 1023.3
20260509080044 12 160 9.7 17.7 0.00 0.00 0.00 69 1023.3
20260509075538 12 208 8.0 17.7 0.00 0.00 0.00 69 1023.3
20260509075034 12 205 8.0 17.7 0.00 0.00 0.00 71 1023.3
20260509074552 12 169 9.7 16.1 0.00 0.00 0.00 70 1023.3
20260509074034 12 195 8.0 16.1 0.00 0.00 0.00 70 1023.5
20260509073536 12 172 8.0 16.1 0.00 0.00 0.00 71 1023.5
20260509073047 12 210 8.0 12.9 0.00 0.00 0.00 72 1023.5
20260509072534 12 179 6.4 11.3 0.00 0.00 0.00 74 1023.5
20260509072034 11 215 3.2 8.0 0.00 0.00 0.00 74 1023.6
20260509071538 11 163 3.2 8.0 0.00 0.00 0.00 75 1023.5
20260509071034 11 161 3.2 8.0 0.00 0.00 0.00 76 1023.6
20260509070534 11 103 1.6 8.0 0.00 0.00 0.00 76 1023.6
20260509070039 11 141 1.6 9.7 0.00 0.00 0.00 78 1023.7
20260509065534 10 265 4.8 9.7 0.00 0.00 0.00 78 1023.7
20260509065034 10 200 1.6 8.0 0.00 0.00 0.00 78 1023.7
20260509064557 10 179 1.6 6.4 0.00 0.00 0.00 79 1023.8
20260509064035 10 120 3.2 6.4 0.00 0.00 0.00 79 1023.7
20260509063534 10 124 1.6 6.4 0.00 0.00 0.00 80 1023.8
20260509063046 9 190 1.6 4.8 0.00 0.00 0.00 80 1023.8
20260509062537 9 129 0.0 3.2 0.00 0.00 0.00 81 1023.9
20260509062038 8 0 0.0 3.2 0.00 0.00 0.00 81 1023.8
20260509061545 8 176 0.0 3.2 0.00 0.00 0.00 81 1023.8
20260509061035 8 155 1.6 4.8 0.00 0.00 0.00 81 1023.8
20260509060535 8 0 0.0 4.8 0.00 0.00 0.00 81 1023.9
20260509060042 8 0 1.6 4.8 0.00 0.00 0.00 81 1023.9
20260509055534 7 0 0.0 0.0 0.00 0.00 0.00 82 1023.9
20260509055033 7 0 0.0 0.0 0.00 0.00 0.00 82 1023.9
20260509054548 7 0 0.0 0.0 0.00 0.00 0.00 81 1024.0
20260509054033 6 0 0.0 0.0 0.00 0.00 0.00 82 1024.0
20260509053534 6 0 0.0 0.0 0.00 0.00 0.00 82 1024.0
20260509053046 6 0 0.0 0.0 0.00 0.00 0.00 84 1024.0
20260509052534 6 0 0.0 0.0 0.00 0.00 0.00 83 1024.0
20260509052034 6 0 0.0 0.0 0.00 0.00 0.00 82 1023.9
20260509051544 6 0 0.0 0.0 0.00 0.00 0.00 82 1023.9
20260509051034 6 0 0.0 0.0 0.00 0.00 0.00 84 1023.9
20260509050534 5 0 0.0 0.0 0.00 0.00 0.00 85 1023.9
20260509050046 5 0 0.0 0.0 0.00 0.00 0.00 86 1023.9
20260509045534 5 0 0.0 0.0 0.00 0.00 0.00 88 1023.9
20260509045034 5 0 0.0 0.0 0.00 0.00 0.00 89 1024.0
20260509044542 4 0 0.0 0.0 0.00 0.00 0.00 89 1023.9
20260509044034 4 0 0.0 0.0 0.00 0.00 0.00 90 1024.0
20260509043534 4 0 0.0 0.0 0.00 0.00 0.00 90 1024.0
20260509043056 3 0 0.0 0.0 0.00 0.00 0.00 90 1024.0
20260509042534 3 0 0.0 0.0 0.00 0.00 0.00 90 1024.0
20260509042034 3 0 0.0 0.0 0.00 0.00 0.00 90 1024.0
20260509041546 3 0 0.0 0.0 0.00 0.00 0.00 90 1023.9
20260509041034 3 0 0.0 0.0 0.00 0.00 0.00 90 1024.0
20260509040535 3 0 0.0 0.0 0.00 0.00 0.00 90 1024.0
20260509040048 3 0 0.0 0.0 0.00 0.00 0.00 90 1024.0
20260509035536 3 0 0.0 0.0 0.00 0.00 0.00 90 1024.0
20260509035034 3 0 0.0 0.0 0.00 0.00 0.00 90 1024.1
20260509034551 3 0 0.0 0.0 0.00 0.00 0.00 90 1024.1
20260509034034 3 0 0.0 0.0 0.00 0.00 0.00 90 1024.1
20260509033534 3 0 0.0 0.0 0.00 0.00 0.00 90 1024.1
20260509033051 3 0 0.0 0.0 0.00 0.00 0.00 90 1024.1
20260509032534 3 0 0.0 0.0 0.00 0.00 0.00 90 1024.2
20260509032033 3 0 0.0 0.0 0.00 0.00 0.00 89 1024.2
20260509031542 3 0 0.0 0.0 0.00 0.00 0.00 89 1024.3
20260509031034 3 0 0.0 0.0 0.00 0.00 0.00 89 1024.2
20260509030534 3 0 0.0 0.0 0.00 0.00 0.00 89 1024.3
20260509030049 3 0 0.0 0.0 0.00 0.00 0.00 88 1024.1
20260509025533 3 0 0.0 0.0 0.00 0.00 0.00 88 1024.2
20260509025033 3 0 0.0 0.0 0.00 0.00 0.00 87 1024.2
20260509024545 3 0 0.0 0.0 0.00 0.00 0.00 87 1024.3
20260509024034 3 0 0.0 0.0 0.00 0.00 0.00 87 1024.3
20260509023534 3 0 0.0 0.0 0.00 0.00 0.00 86 1024.3
20260509023045 3 0 0.0 0.0 0.00 0.00 0.00 85 1024.4
20260509022533 4 0 0.0 0.0 0.00 0.00 0.00 84 1024.4
20260509022033 5 0 0.0 0.0 0.00 0.00 0.00 84 1024.5
20260509021545 5 0 0.0 0.0 0.00 0.00 0.00 84 1024.4
20260509021033 5 0 0.0 0.0 0.00 0.00 0.00 84 1024.5
20260509020534 5 0 0.0 0.0 0.00 0.00 0.00 84 1024.5
20260509020043 5 0 0.0 0.0 0.00 0.00 0.00 85 1024.5
20260509015535 4 0 0.0 0.0 0.00 0.00 0.00 87 1024.5
20260509015036 4 0 0.0 0.0 0.00 0.00 0.00 86 1024.5
20260509014540 3 0 0.0 0.0 0.00 0.00 0.00 86 1024.6
20260509014035 3 0 0.0 0.0 0.00 0.00 0.00 86 1024.7
20260509013534 3 0 0.0 0.0 0.00 0.00 0.00 85 1024.7
20260509013048 4 0 0.0 0.0 0.00 0.00 0.00 85 1024.6
20260509012535 4 0 0.0 0.0 0.00 0.00 0.00 85 1024.6
20260509012034 3 0 0.0 0.0 0.00 0.00 0.00 85 1024.6
20260509011546 3 0 0.0 0.0 0.00 0.00 0.00 84 1024.6
20260509011036 4 0 0.0 0.0 0.00 0.00 0.00 84 1024.6
20260509010533 4 0 0.0 0.0 0.00 0.00 0.00 82 1024.7
20260509010044 4 0 0.0 0.0 0.00 0.00 0.00 82 1024.6
20260509005536 5 0 0.0 0.0 0.00 0.00 0.00 81 1024.7
20260509005033 5 0 0.0 0.0 0.00 0.00 0.00 81 1024.6
20260509004556 5 0 0.0 0.0 0.00 0.00 0.00 81 1024.7
20260509004034 5 0 0.0 0.0 0.00 0.00 0.00 81 1024.6
20260509003534 5 0 0.0 0.0 0.00 0.00 0.00 80 1024.8
20260509003041 5 0 0.0 0.0 0.00 0.00 0.00 80 1024.7
20260509002536 5 0 0.0 0.0 0.00 0.00 0.00 80 1024.7
20260509002034 5 0 0.0 0.0 0.00 0.00 0.00 79 1024.7
20260509001551 5 0 0.0 0.0 0.00 0.00 0.00 79 1024.8
20260509001033 5 0 0.0 0.0 0.00 0.00 0.00 79 1024.7
20260509000535 5 0 0.0 0.0 0.00 0.00 0.00 79 1024.7
20260509000047 5 0 0.0 0.0 0.00 0.00 0.00 79 1024.7
20260508235534 5 0 0.0 0.0 0.00 0.00 0.00 79 1024.7
20260508235037 5 0 0.0 0.0 0.00 0.00 0.00 79 1024.7
20260508234544 5 0 0.0 0.0 0.00 0.00 0.00 79 1024.7
20260508234033 5 0 0.0 0.0 0.00 0.00 0.00 78 1024.7
20260508233533 5 0 0.0 0.0 0.00 0.00 0.00 79 1024.7
20260508233044 5 0 0.0 0.0 0.00 0.00 0.00 78 1024.7
20260508232534 5 0 0.0 1.6 0.00 0.00 0.00 79 1024.7
20260508232034 5 0 0.0 1.6 0.00 0.00 0.00 79 1024.8
20260508231545 4 0 0.0 0.0 0.00 0.00 0.00 79 1024.6
20260508231034 4 0 0.0 0.0 0.00 0.00 0.00 78 1024.7
20260508230533 5 0 0.0 0.0 0.00 0.00 0.00 77 1024.7
20260508230045 5 0 0.0 0.0 0.00 0.00 0.00 76 1024.6
20260508225534 5 0 0.0 0.0 0.00 0.00 0.00 76 1024.7
20260508225034 5 0 0.0 0.0 0.00 0.00 0.00 75 1024.7
20260508224550 5 0 0.0 0.0 0.00 0.00 0.00 76 1024.6
20260508224034 5 0 0.0 0.0 0.00 0.00 0.00 76 1024.6
20260508223534 5 0 0.0 0.0 0.00 0.00 0.00 76 1024.6
20260508223050 5 0 0.0 0.0 0.00 0.00 0.00 75 1024.6
20260508222534 5 0 0.0 0.0 0.00 0.00 0.00 75 1024.7
20260508222033 5 0 0.0 1.6 0.00 0.00 0.00 74 1024.5
20260508221544 5 0 0.0 3.2 0.00 0.00 0.00 75 1024.6
20260508221034 5 118 1.6 3.2 0.00 0.00 0.00 75 1024.6
20260508220534 5 101 1.6 3.2 0.00 0.00 0.00 75 1024.6
20260508220040 6 152 0.0 3.2 0.00 0.00 0.00 71 1024.6
20260508215534 7 106 0.0 1.6 0.00 0.00 0.00 66 1024.6
20260508215034 7 86 1.6 4.8 0.00 0.00 0.00 63 1024.6
20260508214555 7 0 0.0 4.8 0.00 0.00 0.00 63 1024.5
20260508214036 7 0 0.0 3.2 0.00 0.00 0.00 63 1024.5
20260508213533 7 0 0.0 3.2 0.00 0.00 0.00 62 1024.5
20260508213045 7 91 0.0 3.2 0.00 0.00 0.00 63 1024.5
20260508212534 7 89 0.0 1.6 0.00 0.00 0.00 62 1024.6
20260508212035 8 0 0.0 1.6 0.00 0.00 0.00 61 1024.5
20260508211541 8 322 0.0 1.6 0.00 0.00 0.00 62 1024.4
20260508211034 8 0 0.0 0.0 0.00 0.00 0.00 61 1024.5
20260508210534 8 0 0.0 3.2 0.00 0.00 0.00 61 1024.6
20260508210054 8 0 0.0 3.2 0.00 0.00 0.00 60 1024.5
20260508205533 8 0 0.0 1.6 0.00 0.00 0.00 60 1024.5
20260508205034 8 122 0.0 1.6 0.00 0.00 0.00 61 1024.4
20260508204544 8 0 0.0 1.6 0.00 0.00 0.00 61 1024.5
20260508204033 8 0 0.0 0.0 0.00 0.00 0.00 60 1024.5
20260508203533 8 0 0.0 0.0 0.00 0.00 0.00 60 1024.5
20260508203045 8 0 0.0 0.0 0.00 0.00 0.00 60 1024.4
20260508202535 8 0 0.0 0.0 0.00 0.00 0.00 60 1024.5
20260508202034 8 0 0.0 0.0 0.00 0.00 0.00 60 1024.4
20260508201541 8 0 0.0 1.6 0.00 0.00 0.00 61 1024.3
20260508201033 8 0 0.0 1.6 0.00 0.00 0.00 59 1024.4
20260508200534 9 0 0.0 1.6 0.00 0.00 0.00 59 1024.3
20260508200043 9 0 0.0 1.6 0.00 0.00 0.00 59 1024.4
20260508195533 9 0 0.0 1.6 0.00 0.00 0.00 59 1024.2
20260508195033 10 0 0.0 1.6 0.00 0.00 0.00 57 1024.2
20260508194546 10 108 0.0 1.6 0.00 0.00 0.00 57 1024.3
20260508194035 10 0 0.0 6.4 0.00 0.00 0.00 56 1024.1
20260508193533 10 126 1.6 6.4 0.00 0.00 0.00 55 1024.1
20260508193058 10 115 3.2 6.4 0.00 0.00 0.00 56 1024.1
20260508192533 11 114 1.6 4.8 0.00 0.00 0.00 54 1024.2
20260508192038 11 135 1.6 3.2 0.00 0.00 0.00 54 1024.1
20260508191550 11 156 0.0 3.2 0.00 0.00 0.00 52 1024.1
20260508191034 11 205 0.0 6.4 0.00 0.00 0.00 52 1024.1
20260508190533 11 218 3.2 8.0 0.00 0.00 0.00 52 1024.0
20260508190055 11 240 3.2 11.3 0.00 0.00 0.00 52 1023.8
20260508185539 11 230 6.4 11.3 0.00 0.00 0.00 51 1023.7
20260508185034 11 238 6.4 16.1 0.00 0.00 0.00 49 1023.9
20260508184539 12 224 9.7 16.1 0.00 0.00 0.00 48 1023.9
20260508184034 12 230 6.4 12.9 0.00 0.00 0.00 48 1023.8
20260508183533 12 214 6.4 11.3 0.00 0.00 0.00 49 1023.8
20260508183047 12 231 6.4 12.9 0.00 0.00 0.00 48 1023.8
20260508182534 12 232 8.0 19.3 0.00 0.00 0.00 47 1023.8
20260508182034 12 221 9.7 19.3 0.00 0.00 0.00 47 1023.9
20260508181544 12 253 9.7 19.3 0.00 0.00 0.00 46 1023.8
20260508181037 13 153 6.4 11.3 0.00 0.00 0.00 47 1023.8
20260508180533 13 231 8.0 17.7 0.00 0.00 0.00 46 1023.7
20260508180057 13 203 11.3 17.7 0.00 0.00 0.00 45 1023.6
20260508175533 13 208 8.0 19.3 0.00 0.00 0.00 45 1023.7
20260508175033 13 216 11.3 19.3 0.00 0.00 0.00 45 1023.7
20260508174559 13 226 12.9 24.1 0.00 0.00 0.00 46 1023.6
20260508174033 13 192 17.7 24.1 0.00 0.00 0.00 45 1023.6
20260508173533 13 191 11.3 20.9 0.00 0.00 0.00 45 1023.5
20260508173038 13 229 12.9 20.9 0.00 0.00 0.00 47 1023.6
20260508172534 13 207 11.3 20.9 0.00 0.00 0.00 46 1023.5
20260508172034 13 221 9.7 22.5 0.00 0.00 0.00 45 1023.4
20260508171545 13 221 16.1 22.5 0.00 0.00 0.00 45 1023.4
20260508171034 14 221 17.7 22.5 0.00 0.00 0.00 45 1023.4
20260508170534 14 223 12.9 22.5 0.00 0.00 0.00 45 1023.5
20260508170047 14 224 14.5 22.5 0.00 0.00 0.00 43 1023.3
20260508165533 14 244 17.7 25.7 0.00 0.00 0.00 44 1023.4
20260508165033 14 181 16.1 27.4 0.00 0.00 0.00 44 1023.4
20260508164550 14 212 16.1 27.4 0.00 0.00 0.00 44 1023.5
20260508164033 13 222 9.7 24.1 0.00 0.00 0.00 45 1023.4
20260508163537 14 91 8.0 17.7 0.00 0.00 0.00 45 1023.4
20260508163044 14 211 8.0 20.9 0.00 0.00 0.00 44 1023.3
20260508162533 15 241 16.1 25.7 0.00 0.00 0.00 43 1023.4
20260508162033 14 202 16.1 25.7 0.00 0.00 0.00 41 1023.2
20260508161540 15 224 12.9 27.4 0.00 0.00 0.00 43 1023.4
20260508161033 14 229 17.7 27.4 0.00 0.00 0.00 42 1023.4
20260508160533 14 214 11.3 20.9 0.00 0.00 0.00 44 1023.5
20260508160040 14 231 12.9 20.9 0.00 0.00 0.00 44 1023.5
20260508155534 14 61 9.7 20.9 0.00 0.00 0.00 43 1023.4
20260508155034 15 224 11.3 20.9 0.00 0.00 0.00 45 1023.4
20260508154538 14 215 14.5 20.9 0.00 0.00 0.00 44 1023.4
20260508154033 14 229 12.9 20.9 0.00 0.00 0.00 44 1023.5
20260508153534 14 205 11.3 19.3 0.00 0.00 0.00 45 1023.4
20260508153054 14 185 9.7 19.3 0.00 0.00 0.00 44 1023.4
20260508152534 14 207 11.3 27.4 0.00 0.00 0.00 44 1023.5
20260508152033 15 113 16.1 27.4 0.00 0.00 0.00 43 1023.5
20260508151545 15 226 17.7 25.7 0.00 0.00 0.00 43 1023.5
20260508151034 15 218 16.1 25.7 0.00 0.00 0.00 42 1023.6
20260508150533 15 244 17.7 24.1 0.00 0.00 0.00 42 1023.5
20260508150045 15 238 14.5 27.4 0.00 0.00 0.00 43 1023.5
20260508145533 15 204 12.9 30.6 0.00 0.00 0.00 43 1023.5
20260508145033 15 236 19.3 33.8 0.00 0.00 0.00 42 1023.5
20260508144550 15 227 22.5 33.8 0.00 0.00 0.00 41 1023.6
20260508144033 15 207 14.5 32.2 0.00 0.00 0.00 43 1023.6
20260508143534 15 169 19.3 32.2 0.00 0.00 0.00 41 1023.6
20260508143043 15 229 16.1 29.0 0.00 0.00 0.00 41 1023.5
20260508142534 15 211 17.7 25.7 0.00 0.00 0.00 41 1023.7
20260508142033 15 225 16.1 30.6 0.00 0.00 0.00 42 1023.6
20260508141600 15 176 19.3 32.2 0.00 0.00 0.00 39 1023.6
20260508141034 15 176 16.1 32.2 0.00 0.00 0.00 40 1023.7
20260508140533 15 225 24.1 32.2 0.00 0.00 0.00 40 1023.7
20260508140039 15 220 19.3 27.4 0.00 0.00 0.00 41 1023.6
20260508135534 15 231 19.3 29.0 0.00 0.00 0.00 41 1023.7
20260508135034 15 214 19.3 32.2 0.00 0.00 0.00 43 1023.7
20260508134545 15 219 19.3 32.2 0.00 0.00 0.00 41 1023.8
20260508134034 15 241 19.3 30.6 0.00 0.00 0.00 43 1023.8
20260508133534 15 231 20.9 30.6 0.00 0.00 0.00 40 1023.9
20260508133045 15 250 22.5 30.6 0.00 0.00 0.00 41 1023.9